Location: Caualo
(45.5667°N, 10.8667°E)
Time: 19:14:03
(UTC+00:00)

IDEFIX/ARIANE 42P - Pass Details

Date: 07 June 2020
Orbit: 785 x 803 km, 98.4° (Epoch: 11 July)

Event Time Altitude Azimuth Distance (km) Brightness Sun altitude
Rises 02:46:17 0° 12° (NNE) 3,324 6.8 -6.6°
Reaches altitude 10° 02:48:38 10° 12° (NNE) 2,388 6.0 -6.3°
Maximum altitude 02:53:55 83° 287° (WNW) 811 2.6 -5.6°
Drops below altitude 10° 02:59:09 10° 199° (SSW) 2,361 4.5 -4.9°
Enters shadow 03:01:27 - 198° (SSW) 3,279 5.2 -4.6°
